Year,Month,Day,Hour,Minute,Value (Times are PST for temperature in C)
2008,06,29,00,00,21.70
2008,06,29,00,01,21.60
2008,06,29,00,02,21.60
2008,06,29,00,03,21.60
2008,06,29,00,04,21.50
2008,06,29,00,05,21.40
2008,06,29,00,06,21.40
2008,06,29,00,07,21.30
2008,06,29,00,08,21.30
2008,06,29,00,09,21.30
2008,06,29,00,10,21.40
2008,06,29,00,11,21.40
2008,06,29,00,12,21.40
2008,06,29,00,13,21.40
2008,06,29,00,14,21.50
2008,06,29,00,15,21.50
2008,06,29,00,16,21.50
2008,06,29,00,17,21.60
2008,06,29,00,18,21.60
2008,06,29,00,19,21.60
2008,06,29,00,20,21.60
2008,06,29,00,21,21.60
2008,06,29,00,22,21.60
2008,06,29,00,23,21.60
2008,06,29,00,24,21.60
2008,06,29,00,25,21.70
2008,06,29,00,26,21.70
2008,06,29,00,27,21.80
2008,06,29,00,28,21.80
2008,06,29,00,29,21.80
2008,06,29,00,30,21.90
2008,06,29,00,31,22.00
2008,06,29,00,32,22.00
2008,06,29,00,33,22.10
2008,06,29,00,34,22.10
2008,06,29,00,35,22.10
2008,06,29,00,36,22.10
2008,06,29,00,37,22.10
2008,06,29,00,38,22.20
2008,06,29,00,39,22.20
2008,06,29,00,40,22.20
2008,06,29,00,41,22.30
2008,06,29,00,42,22.40
2008,06,29,00,43,22.40
2008,06,29,00,44,22.50
2008,06,29,00,45,22.50
2008,06,29,00,46,22.60
2008,06,29,00,47,22.60
2008,06,29,00,48,22.70
2008,06,29,00,49,22.80
2008,06,29,00,50,22.80
2008,06,29,00,51,22.90
2008,06,29,00,52,23.00
2008,06,29,00,53,23.10
2008,06,29,00,54,23.20
2008,06,29,00,55,23.30
2008,06,29,00,56,23.40
2008,06,29,00,57,23.40
2008,06,29,00,58,23.50
2008,06,29,00,59,23.50
2008,06,29,01,00,23.60
2008,06,29,01,01,23.60
2008,06,29,01,02,23.70
2008,06,29,01,03,23.70
2008,06,29,01,04,23.70
2008,06,29,01,05,23.70
2008,06,29,01,06,23.70
2008,06,29,01,07,23.70
2008,06,29,01,08,23.70
2008,06,29,01,09,23.70
2008,06,29,01,10,23.60
2008,06,29,01,11,23.60
2008,06,29,01,12,23.60
2008,06,29,01,13,23.60
2008,06,29,01,14,23.60
2008,06,29,01,15,23.50
2008,06,29,01,16,23.40
2008,06,29,01,17,23.40
2008,06,29,01,18,23.40
2008,06,29,01,19,23.30
2008,06,29,01,20,23.30
2008,06,29,01,21,23.20
2008,06,29,01,22,23.20
2008,06,29,01,23,23.20
2008,06,29,01,24,23.20
2008,06,29,01,25,23.10
2008,06,29,01,26,23.10
2008,06,29,01,27,23.10
2008,06,29,01,28,23.10
2008,06,29,01,29,23.10
2008,06,29,01,30,23.00
2008,06,29,01,31,23.00
2008,06,29,01,32,22.90
2008,06,29,01,33,22.90
2008,06,29,01,34,22.90
2008,06,29,01,35,22.90
2008,06,29,01,36,22.90
2008,06,29,01,37,22.90
2008,06,29,01,38,22.90
2008,06,29,01,39,22.90
2008,06,29,01,40,22.80
2008,06,29,01,41,22.80
2008,06,29,01,42,22.80
2008,06,29,01,43,22.80
2008,06,29,01,44,22.70
2008,06,29,01,45,22.70
2008,06,29,01,46,22.60
2008,06,29,01,47,22.60
2008,06,29,01,48,22.60
2008,06,29,01,49,22.50
2008,06,29,01,50,22.40
2008,06,29,01,51,22.40
2008,06,29,01,52,22.40
2008,06,29,01,53,22.30
2008,06,29,01,54,22.30
2008,06,29,01,55,22.20
2008,06,29,01,56,22.20
2008,06,29,01,57,22.10
2008,06,29,01,58,22.00
2008,06,29,01,59,22.00
2008,06,29,02,00,21.90
2008,06,29,02,01,21.80
2008,06,29,02,02,21.80
2008,06,29,02,03,21.80
2008,06,29,02,04,21.70
2008,06,29,02,05,21.70
2008,06,29,02,06,21.70
2008,06,29,02,07,21.60
2008,06,29,02,08,21.60
2008,06,29,02,09,21.60
2008,06,29,02,10,21.60
2008,06,29,02,11,21.60
2008,06,29,02,12,21.60
2008,06,29,02,13,21.60
2008,06,29,02,14,21.60
2008,06,29,02,15,21.60
2008,06,29,02,16,21.60
2008,06,29,02,17,21.60
2008,06,29,02,18,21.50
2008,06,29,02,19,21.40
2008,06,29,02,20,21.40
2008,06,29,02,21,21.40
2008,06,29,02,22,21.40
2008,06,29,02,23,21.30
2008,06,29,02,24,21.30
2008,06,29,02,25,21.30
2008,06,29,02,26,21.30
2008,06,29,02,27,21.30
2008,06,29,02,28,21.30
2008,06,29,02,29,21.30
2008,06,29,02,30,21.30
2008,06,29,02,31,21.30
2008,06,29,02,32,21.30
2008,06,29,02,33,21.30
2008,06,29,02,34,21.30
2008,06,29,02,35,21.30
2008,06,29,02,36,21.30
2008,06,29,02,37,21.30
2008,06,29,02,38,21.30
2008,06,29,02,39,21.20
2008,06,29,02,40,21.20
2008,06,29,02,41,21.20
2008,06,29,02,42,21.20
2008,06,29,02,43,21.10
2008,06,29,02,44,21.10
2008,06,29,02,45,21.10
2008,06,29,02,46,21.00
2008,06,29,02,47,21.00
2008,06,29,02,48,21.00
2008,06,29,02,49,21.00
2008,06,29,02,50,21.00
2008,06,29,02,51,21.00
2008,06,29,02,52,21.10
2008,06,29,02,53,21.10
2008,06,29,02,54,21.20
2008,06,29,02,55,21.20
2008,06,29,02,56,21.30
2008,06,29,02,57,21.30
2008,06,29,02,58,21.30
2008,06,29,02,59,21.30
2008,06,29,03,00,21.20
2008,06,29,03,01,21.20
2008,06,29,03,02,21.20
2008,06,29,03,03,21.20
2008,06,29,03,04,21.20
2008,06,29,03,05,21.10
2008,06,29,03,06,21.10
2008,06,29,03,07,21.10
2008,06,29,03,08,21.10
2008,06,29,03,09,21.00
2008,06,29,03,10,20.90
2008,06,29,03,11,20.90
2008,06,29,03,12,20.90
2008,06,29,03,13,20.90
2008,06,29,03,14,20.90
2008,06,29,03,15,20.90
2008,06,29,03,16,20.90
2008,06,29,03,17,20.90
2008,06,29,03,18,20.90
2008,06,29,03,19,20.90
2008,06,29,03,20,20.80
2008,06,29,03,21,20.80
2008,06,29,03,22,20.80
2008,06,29,03,23,20.80
2008,06,29,03,24,20.80
2008,06,29,03,25,20.80
2008,06,29,03,26,20.70
2008,06,29,03,27,20.70
2008,06,29,03,28,20.70
2008,06,29,03,29,20.70
2008,06,29,03,30,20.70
2008,06,29,03,31,20.70
2008,06,29,03,32,20.70
2008,06,29,03,33,20.70
2008,06,29,03,34,20.70
2008,06,29,03,35,20.70
2008,06,29,03,36,20.70
2008,06,29,03,37,20.70
2008,06,29,03,38,20.70
2008,06,29,03,39,20.70
2008,06,29,03,40,20.60
2008,06,29,03,41,20.60
2008,06,29,03,42,20.60
2008,06,29,03,43,20.60
2008,06,29,03,44,20.60
2008,06,29,03,45,20.50
2008,06,29,03,46,20.50
2008,06,29,03,47,20.50
2008,06,29,03,48,20.50
2008,06,29,03,49,20.50
2008,06,29,03,50,20.50
2008,06,29,03,51,20.50
2008,06,29,03,52,20.50
2008,06,29,03,53,20.50
2008,06,29,03,54,20.50
2008,06,29,03,55,20.50
2008,06,29,03,56,20.40
2008,06,29,03,57,20.40
2008,06,29,03,58,20.40
2008,06,29,03,59,20.40
2008,06,29,04,00,20.40
2008,06,29,04,01,20.40
2008,06,29,04,02,20.40
2008,06,29,04,03,20.40
2008,06,29,04,04,20.40
2008,06,29,04,05,20.40
2008,06,29,04,06,20.30
2008,06,29,04,07,20.30
2008,06,29,04,08,20.30
2008,06,29,04,09,20.30
2008,06,29,04,10,20.30
2008,06,29,04,11,20.30
2008,06,29,04,12,20.30
2008,06,29,04,13,20.30
2008,06,29,04,14,20.20
2008,06,29,04,15,20.20
2008,06,29,04,16,20.20
2008,06,29,04,17,20.20
2008,06,29,04,18,20.20
2008,06,29,04,19,20.20
2008,06,29,04,20,20.20
2008,06,29,04,21,20.20
2008,06,29,04,22,20.20
2008,06,29,04,23,20.20
2008,06,29,04,24,20.20
2008,06,29,04,25,20.20
2008,06,29,04,26,20.20
2008,06,29,04,27,20.20
2008,06,29,04,28,20.20
2008,06,29,04,29,20.20
2008,06,29,04,30,20.20
2008,06,29,04,31,20.10
2008,06,29,04,32,20.10
2008,06,29,04,33,20.10
2008,06,29,04,34,20.10
2008,06,29,04,35,20.10
2008,06,29,04,36,20.10
2008,06,29,04,37,20.00
2008,06,29,04,38,20.00
2008,06,29,04,39,20.00
2008,06,29,04,40,20.00
2008,06,29,04,41,20.00
2008,06,29,04,42,20.10
2008,06,29,04,43,20.10
2008,06,29,04,44,20.10
2008,06,29,04,45,20.10
2008,06,29,04,46,20.10
2008,06,29,04,47,20.10
2008,06,29,04,48,20.10
2008,06,29,04,49,20.00
2008,06,29,04,50,20.00
2008,06,29,04,51,20.00
2008,06,29,04,52,20.00
2008,06,29,04,53,20.00
2008,06,29,04,54,20.00
2008,06,29,04,55,20.00
2008,06,29,04,56,20.00
2008,06,29,04,57,20.10
2008,06,29,04,58,20.10
2008,06,29,04,59,20.10
2008,06,29,05,00,20.20
2008,06,29,05,01,20.20
2008,06,29,05,02,20.20
2008,06,29,05,03,20.20
2008,06,29,05,04,20.20
2008,06,29,05,05,20.20
2008,06,29,05,06,20.20
2008,06,29,05,07,20.10
2008,06,29,05,08,20.10
2008,06,29,05,09,20.00
2008,06,29,05,10,20.00
2008,06,29,05,11,19.90
2008,06,29,05,12,19.90
2008,06,29,05,13,19.80
2008,06,29,05,14,19.80
2008,06,29,05,15,19.80
2008,06,29,05,16,19.70
2008,06,29,05,17,19.70
2008,06,29,05,18,19.70
2008,06,29,05,19,19.60
2008,06,29,05,20,19.60
2008,06,29,05,21,19.50
2008,06,29,05,22,19.50
2008,06,29,05,23,19.40
2008,06,29,05,24,19.40
2008,06,29,05,25,19.40
2008,06,29,05,26,19.40
2008,06,29,05,27,19.40
2008,06,29,05,28,19.40
2008,06,29,05,29,19.40
2008,06,29,05,30,19.40
2008,06,29,05,31,19.40
2008,06,29,05,32,19.40
2008,06,29,05,33,19.40
2008,06,29,05,34,19.40
2008,06,29,05,35,19.40
2008,06,29,05,36,19.40
2008,06,29,05,37,19.40
2008,06,29,05,38,19.40
2008,06,29,05,39,19.40
2008,06,29,05,40,19.40
2008,06,29,05,41,19.50
2008,06,29,05,42,19.50
2008,06,29,05,43,19.50
2008,06,29,05,44,19.50
2008,06,29,05,45,19.60
2008,06,29,05,46,19.60
2008,06,29,05,47,19.60
2008,06,29,05,48,19.60
2008,06,29,05,49,19.60
2008,06,29,05,50,19.50
2008,06,29,05,51,19.50
2008,06,29,05,52,19.50
2008,06,29,05,53,19.40
2008,06,29,05,54,19.40
2008,06,29,05,55,19.30
2008,06,29,05,56,19.30
2008,06,29,05,57,19.30
2008,06,29,05,58,19.30
2008,06,29,05,59,19.20
2008,06,29,06,00,19.20
2008,06,29,06,01,19.20
2008,06,29,06,02,19.30
2008,06,29,06,03,19.30
2008,06,29,06,04,19.30
2008,06,29,06,05,19.30
2008,06,29,06,06,19.40
2008,06,29,06,07,19.40
2008,06,29,06,08,19.40
2008,06,29,06,09,19.40
2008,06,29,06,10,19.50
2008,06,29,06,11,19.50
2008,06,29,06,12,19.50
2008,06,29,06,13,19.50
2008,06,29,06,14,19.50
2008,06,29,06,15,19.50
2008,06,29,06,16,19.50
2008,06,29,06,17,19.50
2008,06,29,06,18,19.60
2008,06,29,06,19,19.60
2008,06,29,06,20,19.60
2008,06,29,06,21,19.60
2008,06,29,06,22,19.60
2008,06,29,06,23,19.60
2008,06,29,06,24,19.60
2008,06,29,06,25,19.60
2008,06,29,06,26,19.60
2008,06,29,06,27,19.70
2008,06,29,06,28,19.70
2008,06,29,06,29,19.70
2008,06,29,06,30,19.70
2008,06,29,06,31,19.70
2008,06,29,06,32,19.70
2008,06,29,06,33,19.70
2008,06,29,06,34,19.70
2008,06,29,06,35,19.70
2008,06,29,06,36,19.70
2008,06,29,06,37,19.60
2008,06,29,06,38,19.60
2008,06,29,06,39,19.60
2008,06,29,06,40,19.70
2008,06,29,06,41,19.70
2008,06,29,06,42,19.70
2008,06,29,06,43,19.70
2008,06,29,06,44,19.70
2008,06,29,06,45,19.70
2008,06,29,06,46,19.70
2008,06,29,06,47,19.70
2008,06,29,06,48,19.70
2008,06,29,06,49,19.70
2008,06,29,06,50,19.70
2008,06,29,06,51,19.70
2008,06,29,06,52,19.60
2008,06,29,06,53,19.60
2008,06,29,06,54,19.60
2008,06,29,06,55,19.60
2008,06,29,06,56,19.60
2008,06,29,06,57,19.60
2008,06,29,06,58,19.60
2008,06,29,06,59,19.60
2008,06,29,07,00,19.60
2008,06,29,07,01,19.60
2008,06,29,07,02,19.60
2008,06,29,07,03,19.60
2008,06,29,07,04,19.60
2008,06,29,07,05,19.60
2008,06,29,07,06,19.60
2008,06,29,07,07,19.60
2008,06,29,07,08,19.70
2008,06,29,07,09,19.70
2008,06,29,07,10,19.70
2008,06,29,07,11,19.70
2008,06,29,07,12,19.70
2008,06,29,07,13,19.70
2008,06,29,07,14,19.80
2008,06,29,07,15,19.80
2008,06,29,07,16,19.80
2008,06,29,07,17,19.80
2008,06,29,07,18,19.80
2008,06,29,07,19,19.80
2008,06,29,07,20,19.80
2008,06,29,07,21,19.80
2008,06,29,07,22,19.80
2008,06,29,07,23,19.90
2008,06,29,07,24,19.90
2008,06,29,07,25,19.90
2008,06,29,07,26,20.00
2008,06,29,07,27,20.00
2008,06,29,07,28,20.10
2008,06,29,07,29,20.10
2008,06,29,07,30,20.10
2008,06,29,07,31,20.20
2008,06,29,07,32,20.20
2008,06,29,07,33,20.20
2008,06,29,07,34,20.20
2008,06,29,07,35,20.20
2008,06,29,07,36,20.20
2008,06,29,07,37,20.20
2008,06,29,07,38,20.20
2008,06,29,07,39,20.20
2008,06,29,07,40,20.20
2008,06,29,07,41,20.20
2008,06,29,07,42,20.20
2008,06,29,07,43,20.20
2008,06,29,07,44,20.20
2008,06,29,07,45,20.20
2008,06,29,07,46,20.20
2008,06,29,07,47,20.20
2008,06,29,07,48,20.20
2008,06,29,07,49,20.20
2008,06,29,07,50,20.20
2008,06,29,07,51,20.20
2008,06,29,07,52,20.20
2008,06,29,07,53,20.20
2008,06,29,07,54,20.20
2008,06,29,07,55,20.20
2008,06,29,07,56,20.20
2008,06,29,07,57,20.20
2008,06,29,07,58,20.30
2008,06,29,07,59,20.30
2008,06,29,08,00,20.30
2008,06,29,08,01,20.40
2008,06,29,08,02,20.40
2008,06,29,08,03,20.40
2008,06,29,08,04,20.40
2008,06,29,08,05,20.50
2008,06,29,08,06,20.50
2008,06,29,08,07,20.50
2008,06,29,08,08,20.50
2008,06,29,08,09,20.60
2008,06,29,08,10,20.60
2008,06,29,08,11,20.60
2008,06,29,08,12,20.60
2008,06,29,08,13,20.70
2008,06,29,08,14,20.70
2008,06,29,08,15,20.70
2008,06,29,08,16,20.70
2008,06,29,08,17,20.70
2008,06,29,08,18,20.80
2008,06,29,08,19,20.80
2008,06,29,08,20,20.90
2008,06,29,08,21,20.90
2008,06,29,08,22,21.00
2008,06,29,08,23,21.00
2008,06,29,08,24,21.10
2008,06,29,08,25,21.10
2008,06,29,08,26,21.10
2008,06,29,08,27,21.20
2008,06,29,08,28,21.20
2008,06,29,08,29,21.20
2008,06,29,08,30,21.20
2008,06,29,08,31,21.20
2008,06,29,08,32,21.20
2008,06,29,08,33,21.20
2008,06,29,08,34,21.20
2008,06,29,08,35,21.20
2008,06,29,08,36,21.30
2008,06,29,08,37,21.30
2008,06,29,08,38,21.30
2008,06,29,08,39,21.30
2008,06,29,08,40,21.30
2008,06,29,08,41,21.30
2008,06,29,08,42,21.30
2008,06,29,08,43,21.40
2008,06,29,08,44,21.40
2008,06,29,08,45,21.40
2008,06,29,08,46,21.40
2008,06,29,08,47,21.50
2008,06,29,08,48,21.50
2008,06,29,08,49,21.50
2008,06,29,08,50,21.50
2008,06,29,08,51,21.50
2008,06,29,08,52,21.50
2008,06,29,08,53,21.50
2008,06,29,08,54,21.50
2008,06,29,08,55,21.50
2008,06,29,08,56,21.50
2008,06,29,08,57,21.60
2008,06,29,08,58,21.60
2008,06,29,08,59,21.70
2008,06,29,09,00,21.70
2008,06,29,09,01,21.70
2008,06,29,09,02,21.70
2008,06,29,09,03,21.70
2008,06,29,09,04,21.80
2008,06,29,09,05,21.80
2008,06,29,09,06,21.90
2008,06,29,09,07,22.00
2008,06,29,09,08,22.10
2008,06,29,09,09,22.10
2008,06,29,09,10,22.20
2008,06,29,09,11,22.20
2008,06,29,09,12,22.20
2008,06,29,09,13,22.20
2008,06,29,09,14,22.30
2008,06,29,09,15,22.30
2008,06,29,09,16,22.30
2008,06,29,09,17,22.30
2008,06,29,09,18,22.20
2008,06,29,09,19,22.20
2008,06,29,09,20,22.10
2008,06,29,09,21,22.10
2008,06,29,09,22,22.00
2008,06,29,09,23,22.00
2008,06,29,09,24,22.00
2008,06,29,09,25,21.90
2008,06,29,09,26,21.80
2008,06,29,09,27,21.80
2008,06,29,09,28,21.80
2008,06,29,09,29,21.80
2008,06,29,09,30,21.80
2008,06,29,09,31,21.80
2008,06,29,09,32,21.80
2008,06,29,09,33,21.90
2008,06,29,09,34,21.90
2008,06,29,09,35,21.90
2008,06,29,09,36,21.90
2008,06,29,09,37,21.90
2008,06,29,09,38,22.00
2008,06,29,09,39,22.00
2008,06,29,09,40,22.10
2008,06,29,09,41,22.10
2008,06,29,09,42,22.10
2008,06,29,09,43,22.10
2008,06,29,09,44,22.10
2008,06,29,09,45,22.10
2008,06,29,09,46,22.10
2008,06,29,09,47,22.10
2008,06,29,09,48,22.10
2008,06,29,09,49,22.10
2008,06,29,09,50,22.10
2008,06,29,09,51,22.00
2008,06,29,09,52,22.00
2008,06,29,09,53,22.00
2008,06,29,09,54,21.90
2008,06,29,09,55,21.90
2008,06,29,09,56,21.80
2008,06,29,09,57,21.80
2008,06,29,09,58,21.70
2008,06,29,09,59,21.60
2008,06,29,10,00,21.50
2008,06,29,10,01,21.40
2008,06,29,10,02,21.30
2008,06,29,10,03,21.30
2008,06,29,10,04,21.30
2008,06,29,10,05,21.30
2008,06,29,10,06,21.30
2008,06,29,10,07,21.20
2008,06,29,10,08,21.20
2008,06,29,10,09,21.20
2008,06,29,10,10,21.20
2008,06,29,10,11,21.20
2008,06,29,10,12,21.20
2008,06,29,10,13,21.20
2008,06,29,10,14,21.30
2008,06,29,10,15,21.30
2008,06,29,10,16,21.30
2008,06,29,10,17,21.40
2008,06,29,10,18,21.40
2008,06,29,10,19,21.30
2008,06,29,10,20,21.40
2008,06,29,10,21,21.30
2008,06,29,10,22,21.30
2008,06,29,10,23,21.30
2008,06,29,10,24,21.20
2008,06,29,10,25,21.20
2008,06,29,10,26,21.10
2008,06,29,10,27,21.10
2008,06,29,10,28,21.00
2008,06,29,10,29,21.00
2008,06,29,10,30,20.90
2008,06,29,10,31,20.90
2008,06,29,10,32,20.90
2008,06,29,10,33,20.90
2008,06,29,10,34,20.80
2008,06,29,10,35,20.80
2008,06,29,10,36,20.80
2008,06,29,10,37,20.80
2008,06,29,10,38,20.80
2008,06,29,10,39,20.80
2008,06,29,10,40,20.80
2008,06,29,10,41,20.80
2008,06,29,10,42,20.70
2008,06,29,10,43,20.70
2008,06,29,10,44,20.80
2008,06,29,10,45,20.80
2008,06,29,10,46,20.80
2008,06,29,10,47,20.80
2008,06,29,10,48,20.80
2008,06,29,10,49,20.80
2008,06,29,10,50,20.80
2008,06,29,10,51,20.90
2008,06,29,10,52,20.90
2008,06,29,10,53,21.00
2008,06,29,10,54,21.00
2008,06,29,10,55,21.00
2008,06,29,10,56,21.10
2008,06,29,10,57,21.10
2008,06,29,10,58,21.20
2008,06,29,10,59,21.20
2008,06,29,11,00,21.20
2008,06,29,11,01,21.20
2008,06,29,11,02,21.20
2008,06,29,11,03,21.30
2008,06,29,11,04,21.30
2008,06,29,11,05,21.40
2008,06,29,11,06,21.50
2008,06,29,11,07,21.60
2008,06,29,11,08,21.60
2008,06,29,11,09,21.70
2008,06,29,11,10,21.80
2008,06,29,11,11,21.80
2008,06,29,11,12,21.90
2008,06,29,11,13,22.00
2008,06,29,11,14,22.10
2008,06,29,11,15,22.10
2008,06,29,11,16,22.10
2008,06,29,11,17,22.10
2008,06,29,11,18,22.10
2008,06,29,11,19,22.10
2008,06,29,11,20,22.20
2008,06,29,11,21,22.20
2008,06,29,11,22,22.20
2008,06,29,11,23,22.20
2008,06,29,11,24,22.20
2008,06,29,11,25,22.20
2008,06,29,11,26,22.30
2008,06,29,11,27,22.30
2008,06,29,11,28,22.40
2008,06,29,11,29,22.50
2008,06,29,11,30,22.60
2008,06,29,11,31,22.60
2008,06,29,11,32,22.70
2008,06,29,11,33,22.70
2008,06,29,11,34,22.70
2008,06,29,11,35,22.70
2008,06,29,11,36,22.80
2008,06,29,11,37,22.80
2008,06,29,11,38,22.90
2008,06,29,11,39,22.90
2008,06,29,11,40,22.90
2008,06,29,11,41,22.90
2008,06,29,11,42,22.90
2008,06,29,11,43,22.90
2008,06,29,11,44,22.80
2008,06,29,11,45,22.80
2008,06,29,11,46,22.90
2008,06,29,11,47,23.00
2008,06,29,11,48,23.10
2008,06,29,11,49,23.20
2008,06,29,11,50,23.30
2008,06,29,11,51,23.40
2008,06,29,11,52,23.50
2008,06,29,11,53,23.50
2008,06,29,11,54,23.60
2008,06,29,11,55,23.60
2008,06,29,11,56,23.70
2008,06,29,11,57,23.70
2008,06,29,11,58,23.80
2008,06,29,11,59,23.90
2008,06,29,12,00,24.00
2008,06,29,12,01,24.10
2008,06,29,12,02,24.10
2008,06,29,12,03,24.20
2008,06,29,12,04,24.30
2008,06,29,12,05,24.50
2008,06,29,12,06,24.60
2008,06,29,12,07,24.70
2008,06,29,12,08,24.70
2008,06,29,12,09,24.60
2008,06,29,12,10,24.60
2008,06,29,12,11,24.50
2008,06,29,12,12,24.60
2008,06,29,12,13,24.60
2008,06,29,12,14,24.60
2008,06,29,12,15,24.70
2008,06,29,12,16,24.70
2008,06,29,12,17,24.70
2008,06,29,12,18,24.60
2008,06,29,12,19,24.50
2008,06,29,12,20,24.40
2008,06,29,12,21,24.40
2008,06,29,12,22,24.40
2008,06,29,12,23,24.30
2008,06,29,12,24,24.30
2008,06,29,12,25,24.30
2008,06,29,12,26,24.30
2008,06,29,12,27,24.40
2008,06,29,12,28,24.50
2008,06,29,12,29,24.50
2008,06,29,12,30,24.40
2008,06,29,12,31,24.40
2008,06,29,12,32,24.40
2008,06,29,12,33,24.40
2008,06,29,12,34,24.40
2008,06,29,12,35,24.30
2008,06,29,12,36,24.30
2008,06,29,12,37,24.20
2008,06,29,12,38,24.30
2008,06,29,12,39,24.40
2008,06,29,12,40,24.40
2008,06,29,12,41,24.60
2008,06,29,12,42,24.70
2008,06,29,12,43,24.80
2008,06,29,12,44,24.90
2008,06,29,12,45,25.00
2008,06,29,12,46,25.00
2008,06,29,12,47,25.10
2008,06,29,12,48,25.10
2008,06,29,12,49,25.10
2008,06,29,12,50,25.10
2008,06,29,12,51,25.10
2008,06,29,12,52,25.20
2008,06,29,12,53,25.20
2008,06,29,12,54,25.30
2008,06,29,12,55,25.30
2008,06,29,12,56,25.30
2008,06,29,12,57,25.30
2008,06,29,12,58,25.30
2008,06,29,12,59,25.30
2008,06,29,13,00,25.20
2008,06,29,13,01,25.20
2008,06,29,13,02,25.20
2008,06,29,13,03,25.20
2008,06,29,13,04,25.20
2008,06,29,13,05,25.20
2008,06,29,13,06,25.20
2008,06,29,13,07,25.20
2008,06,29,13,08,25.10
2008,06,29,13,09,25.10
2008,06,29,13,10,25.10
2008,06,29,13,11,25.10
2008,06,29,13,12,25.10
2008,06,29,13,13,25.20
2008,06,29,13,14,25.20
2008,06,29,13,15,25.20
2008,06,29,13,16,25.20
2008,06,29,13,17,25.20
2008,06,29,13,18,25.20
2008,06,29,13,19,25.20
2008,06,29,13,20,25.30
2008,06,29,13,21,25.30
2008,06,29,13,22,25.30
2008,06,29,13,23,25.40
2008,06,29,13,24,25.40
2008,06,29,13,25,25.40
2008,06,29,13,26,25.40
2008,06,29,13,27,25.40
2008,06,29,13,28,25.40
2008,06,29,13,29,25.40
2008,06,29,13,30,25.40
2008,06,29,13,31,25.30
2008,06,29,13,32,25.30
2008,06,29,13,33,25.20
2008,06,29,13,34,25.20
2008,06,29,13,35,25.10
2008,06,29,13,36,25.10
2008,06,29,13,37,25.10
2008,06,29,13,38,25.10
2008,06,29,13,39,25.10
2008,06,29,13,40,25.10
2008,06,29,13,41,25.20
2008,06,29,13,42,25.20
2008,06,29,13,43,25.30
2008,06,29,13,44,25.30
2008,06,29,13,45,25.40
2008,06,29,13,46,25.40
2008,06,29,13,47,25.40
2008,06,29,13,48,25.40
2008,06,29,13,49,25.30
2008,06,29,13,50,25.30
2008,06,29,13,51,25.40
2008,06,29,13,52,25.40
2008,06,29,13,53,25.50
2008,06,29,13,54,25.50
2008,06,29,13,55,25.50
2008,06,29,13,56,25.50
2008,06,29,13,57,25.30
2008,06,29,13,58,25.30
2008,06,29,13,59,25.40
2008,06,29,14,00,25.50
2008,06,29,14,01,25.60
2008,06,29,14,02,25.70
2008,06,29,14,03,25.70
2008,06,29,14,04,25.70
2008,06,29,14,05,25.70
2008,06,29,14,06,25.70
2008,06,29,14,07,25.70
2008,06,29,14,08,25.70
2008,06,29,14,09,25.70
2008,06,29,14,10,25.80
2008,06,29,14,11,25.90
2008,06,29,14,12,25.90
2008,06,29,14,13,26.00
2008,06,29,14,14,26.10
2008,06,29,14,15,26.10
2008,06,29,14,16,26.10
2008,06,29,14,17,26.10
2008,06,29,14,18,26.10
2008,06,29,14,19,26.20
2008,06,29,14,20,26.10
2008,06,29,14,21,26.10
2008,06,29,14,22,26.10
2008,06,29,14,23,26.10
2008,06,29,14,24,26.10
2008,06,29,14,25,26.00
2008,06,29,14,26,25.90
2008,06,29,14,27,25.90
2008,06,29,14,28,25.90
2008,06,29,14,29,25.90
2008,06,29,14,30,25.90
2008,06,29,14,31,25.90
2008,06,29,14,32,26.00
2008,06,29,14,33,26.10
2008,06,29,14,34,26.20
2008,06,29,14,35,26.20
2008,06,29,14,36,26.20
2008,06,29,14,37,26.30
2008,06,29,14,38,26.30
2008,06,29,14,39,26.40
2008,06,29,14,40,26.50
2008,06,29,14,41,26.60
2008,06,29,14,42,26.70
2008,06,29,14,43,26.70
2008,06,29,14,44,26.80
2008,06,29,14,45,26.80
2008,06,29,14,46,26.80
2008,06,29,14,47,26.80
2008,06,29,14,48,26.80
2008,06,29,14,49,26.90
2008,06,29,14,50,26.90
2008,06,29,14,51,26.80
2008,06,29,14,52,26.80
2008,06,29,14,53,26.90
2008,06,29,14,54,26.90
2008,06,29,14,55,26.90
2008,06,29,14,56,26.90
2008,06,29,14,57,26.80
2008,06,29,14,58,26.80
2008,06,29,14,59,26.70
2008,06,29,15,00,26.60
2008,06,29,15,01,26.40
2008,06,29,15,02,26.20
2008,06,29,15,03,26.10
2008,06,29,15,04,26.00
2008,06,29,15,05,25.90
2008,06,29,15,06,26.00
2008,06,29,15,07,26.00
2008,06,29,15,08,26.10
2008,06,29,15,09,26.10
2008,06,29,15,10,26.10
2008,06,29,15,11,26.10
2008,06,29,15,12,26.10
2008,06,29,15,13,26.10
2008,06,29,15,14,26.10
2008,06,29,15,15,26.10
2008,06,29,15,16,26.10
2008,06,29,15,17,26.10
2008,06,29,15,18,26.10
2008,06,29,15,19,26.00
2008,06,29,15,20,26.00
2008,06,29,15,21,26.00
2008,06,29,15,22,26.10
2008,06,29,15,23,26.10
2008,06,29,15,24,26.20
2008,06,29,15,25,26.20
2008,06,29,15,26,26.30
2008,06,29,15,27,26.40
2008,06,29,15,28,26.50
2008,06,29,15,29,26.60
2008,06,29,15,30,26.70
2008,06,29,15,31,26.70
2008,06,29,15,32,26.80
2008,06,29,15,33,26.80
2008,06,29,15,34,26.80
2008,06,29,15,35,26.80
2008,06,29,15,36,26.80
2008,06,29,15,37,26.90
2008,06,29,15,38,27.10
2008,06,29,15,39,27.20
2008,06,29,15,40,27.30
2008,06,29,15,41,27.40
2008,06,29,15,42,27.50
2008,06,29,15,43,27.60
2008,06,29,15,44,27.80
2008,06,29,15,45,27.80
2008,06,29,15,46,27.90
2008,06,29,15,47,27.90
2008,06,29,15,48,27.90
2008,06,29,15,49,27.80
2008,06,29,15,50,27.80
2008,06,29,15,51,27.80
2008,06,29,15,52,27.80
2008,06,29,15,53,27.80
2008,06,29,15,54,27.80
2008,06,29,15,55,27.80
2008,06,29,15,56,27.80
2008,06,29,15,57,27.80
2008,06,29,15,58,27.80
2008,06,29,15,59,27.80
2008,06,29,16,00,27.80
2008,06,29,16,01,27.80
2008,06,29,16,02,27.80
2008,06,29,16,03,27.80
2008,06,29,16,04,27.80
2008,06,29,16,05,27.70
2008,06,29,16,06,27.60
2008,06,29,16,07,27.60
2008,06,29,16,08,27.60
2008,06,29,16,09,27.60
2008,06,29,16,10,27.50
2008,06,29,16,11,27.50
2008,06,29,16,12,27.40
2008,06,29,16,13,27.40
2008,06,29,16,14,27.50
2008,06,29,16,15,27.50
2008,06,29,16,16,27.60
2008,06,29,16,17,27.60
2008,06,29,16,18,27.60
2008,06,29,16,19,27.60
2008,06,29,16,20,27.60
2008,06,29,16,21,27.60
2008,06,29,16,22,27.60
2008,06,29,16,23,27.70
2008,06,29,16,24,27.80
2008,06,29,16,25,28.00
2008,06,29,16,26,28.10
2008,06,29,16,27,28.20
2008,06,29,16,28,28.20
2008,06,29,16,29,28.20
2008,06,29,16,30,28.10
2008,06,29,16,31,28.00
2008,06,29,16,32,27.90
2008,06,29,16,33,27.80
2008,06,29,16,34,27.70
2008,06,29,16,35,27.60
2008,06,29,16,36,27.60
2008,06,29,16,37,27.70
2008,06,29,16,38,27.70
2008,06,29,16,39,27.80
2008,06,29,16,40,27.80
2008,06,29,16,41,27.80
2008,06,29,16,42,27.80
2008,06,29,16,43,27.80
2008,06,29,16,44,27.80
2008,06,29,16,45,27.80
2008,06,29,16,46,27.80
2008,06,29,16,47,27.70
2008,06,29,16,48,27.70
2008,06,29,16,49,27.70
2008,06,29,16,50,27.60
2008,06,29,16,51,27.60
2008,06,29,16,52,27.60
2008,06,29,16,53,27.60
2008,06,29,16,54,27.60
2008,06,29,16,55,27.60
2008,06,29,16,56,27.60
2008,06,29,16,57,27.60
2008,06,29,16,58,27.60
2008,06,29,16,59,27.60
2008,06,29,17,00,27.70
2008,06,29,17,01,27.80
2008,06,29,17,02,27.90
2008,06,29,17,03,27.90
2008,06,29,17,04,28.00
2008,06,29,17,05,28.00
2008,06,29,17,06,28.00
2008,06,29,17,07,28.10
2008,06,29,17,08,28.00
2008,06,29,17,09,28.00
2008,06,29,17,10,28.10
2008,06,29,17,11,28.10
2008,06,29,17,12,28.20
2008,06,29,17,13,28.20
2008,06,29,17,14,28.30
2008,06,29,17,15,28.30
2008,06,29,17,16,28.40
2008,06,29,17,17,28.40
2008,06,29,17,18,28.40
2008,06,29,17,19,28.50